Regional Weather Roundup
Issued by NWS

Home | Current Version | Previous Version | Text Only | Print | Product List | Glossary Off
Versions: 1 2 3 4 5 6 7 8 9 10 11 12 13 14 15 16 17 18 19 20 21 22 23 24 25 26 27 28 29 30 31 32 33 34 35 36 37 38 39 40 41 42 43 44 45 46 47 48 49 50

000
ASUS43 KLOT 012112
RWRIL

ILLINOIS REGIONAL WEATHER ROUNDUP
NATIONAL WEATHER SERVICE CHICAGO/ROMEOVILLE IL
400 PM CDT TUE SEP 01 2015

NOTE: "FAIR" INDICATES FEW OR NO CLOUDS BELOW 12,000 FEET WITH NO
SIGNIFICANT WEATHER AND/OR OBSTRUCTIONS TO VISIBILITY.

* THESE STATIONS ARE NOT UNDER NWS QUALITY CONTROL. THEY ALSO MAY NOT
  REPORT WEATHER SUCH AS PRECIPITATION OR FOG.

ILZ001-002-007-009-015-016-024-012200-
NORTHWEST ILLINOIS

CITY           SKY/WX    TMP DP  RH WIND       PRES   REMARKS
MOLINE         MOSUNNY   90  71  53 SW9       29.98S HX  96
STERLING*      MOSUNNY  N/A N/A N/A SW10G17   29.97S
SAVANNA*       SUNNY     90  70  51 SW9       29.97F HX  95
$$

ILZ003-004-008-010-011-017-018-012200-
NORTH CENTRAL ILLINOIS

CITY           SKY/WX    TMP DP  RH WIND       PRES   REMARKS
ROCKFORD       MOSUNNY   89  70  53 SW12      30.00S HX  94
FREEPORT*      SUNNY     87  72  61 SW13G20   30.00F HX  92
ROCHELLE*      MOSUNNY   87  72  61 SW10      30.01S HX  94
DE KALB*       MOSUNNY   88  71  58 SW12      30.02S HX  94
PERU*          MOSUNNY   90  67  46 SW12G17   30.01F HX  93
$$

ILZ005-006-012>014-019>023-012200-
NORTHEAST ILLINOIS

CITY           SKY/WX    TMP DP  RH WIND       PRES   REMARKS
CHICAGO-OHARE  MOSUNNY   87  72  60 SW12G21   29.99F HX  93
CHICAGO-MIDWAY MOSUNNY   88  71  57 SW10G18   30.00F HX  94
AURORA         PTSUNNY   87  75  67 S9        30.01F HX  96
LANSING*       SUNNY     87  71  58 SW10      30.02F HX  92
JOLIET*        SUNNY     88  74  63 S9        30.01F HX  97
WAUKEGAN       MOSUNNY   88  70  55 SW8       29.98S HX  93
DUPAGE AIRPORT PTSUNNY   87  75  67 S13       30.00F HX  96
KANKAKEE*      SUNNY     88  74  63 S8        30.04F HX  96
WHEELING       MOSUNNY   89  68  49 SW12      30.00S HX  93
MORRIS*        SUNNY     87  74  66 SW9       30.00F HX  95
ROMEOVILLE*    SUNNY     86  70  58 SW10      30.01F HX  90
NORTHERLY ISL    N/A     87  68  52 W12         N/A  HX  90
$$

LMZ740>746-012200-
SOUTHERN LAKE MICHIGAN

STATION/POSITION SKY/WX   TEMP    WIND        PRES    VSBY  WAVE
                          AIR SEA DIR/SP/G                  HT/PER
                          (F)     (DEG/KT/KT) (MB)    (MI)  (FT/S)
SOUTHERN BUOY              74 70  180/ 12/ 14 1015.2F         1/ 3
WILMETTE HARBOR            70 61  330/  6/ 10   N/A           1/ 3
BURNHAM HARBOR             87     200/  8/ 15   N/A
CALUMET HARBOR             85     180/  7/ 13   N/A
MICHIGAN CITY 6N           78 73  210/  4/  6   N/A           1
ST. JOSEPH                 75 73  280/  6/  6   N/A           1/ 3
$$

ILZ025>027-034>036-040-047-049-050-058-095>099-012200-
WEST-CENTRAL ILLINOIS

CITY           SKY/WX    TMP DP  RH WIND       PRES   REMARKS
QUINCY         MOSUNNY   91  68  46 S10       30.02F HX  95
GALESBURG*     MOSUNNY   89  70  53 SW10      30.01F HX  95
MACOMB*        MOSUNNY   92  66  41 SW8       30.03S HX  95
JACKSONVILLE*  MOSUNNY   93  70  46 S12       30.03S HX  98
PITTSFIELD*    MOSUNNY   91  68  47 S8        30.04F HX  95
$$

ILZ028>032-037-038-041>044-048-051>054-059>061-012200-
CENTRAL ILLINOIS

CITY           SKY/WX    TMP DP  RH WIND       PRES   REMARKS
PONTIAC        SUNNY     89  76  65 S12       30.03S HX  99
BLOOMINGTON    MOSUNNY   91  74  57 S13G22    30.05S HX 100
DECATUR        MOSUNNY   89  69  51 S12       30.04F HX  93
PEORIA         SUNNY     95  63  34 SW9       30.01F HX  96
LACON*         SUNNY     90  67  47 SW5       30.00S HX  93
LINCOLN*       MOSUNNY   93  67  41 SW5       30.01S HX  96
SPRINGFIELD    MOSUNNY   93  69  45 SW7       30.02F HX  98
TAYLORVILLE    MOSUNNY   88  70  55 S10       30.04S HX  92
$$

ILZ033-039-045-046-055>057-062-063-012200-
EAST-CENTRAL ILLINOIS

CITY           SKY/WX    TMP DP  RH WIND       PRES   REMARKS
CHAMPAIGN      MOSUNNY   87  72  60 SE6       30.06F HX  93
RANTOUL*       MOSUNNY   86  75  70 SE9       30.06F HX  94
MATTOON        PTSUNNY   87  69  54 SE12      30.06F HX  91
PARIS*         MOSUNNY   85  72  65 S7        30.09F HX  91
$$

ILZ079-100>102-012200-
SOUTHWEST ILLINOIS

CITY           SKY/WX    TMP DP  RH WIND       PRES   REMARKS
ALTON          MOSUNNY   88  68  51 S7        30.05F HX  91
BELLEVILLE     MOSUNNY   91  73  55 VRB5      30.04F HX  98
CAHOKIA*       MOSUNNY   91  69  48 SE9       30.04F HX  96
SPARTA*        MOSUNNY   88  69  54 S5        30.07F HX  92
$$

ILZ064>066-069>071-074>076-080>082-084>086-088>090-092>094-012200-
SOUTH-CENTRAL ILLINOIS

CITY           SKY/WX    TMP DP  RH WIND       PRES   REMARKS
CARBONDALE     MOSUNNY   87  70  56 SW9       30.07  HX  92
CAIRO*         SUNNY     86  75  68 SW3       30.07F HX  94
EFFINGHAM*     MOSUNNY   88  65  45 SE7       30.08F HX  89
MARION         MOSUNNY   88  70  55 S12       30.08F HX  92
MT. VERNON     SUNNY     91  70  49 S8        30.08S HX  97
CENTRALIA*     MOSUNNY   90  72  54 S8        30.06F HX  96
SALEM*         MOSUNNY   90  69  49 S8        30.07S HX  94
METROPOLIS*    SUNNY     89  71  56 CALM      30.08F HX  95
$$

ILZ067-068-072-073-078-083-087-091-012200-
SOUTHEAST ILLINOIS

CITY           SKY/WX    TMP DP  RH WIND       PRES   REMARKS
LAWRENCEVILLE  PTSUNNY   90  67  46 VRB6      30.08F HX  93
FLORA*         MOSUNNY   90  67  46 SW9       30.07S HX  93
FAIRFIELD*     MOSUNNY   88  68  52 S7        30.06F HX  91
HARRISBURG*    MOSUNNY   89  69  50 SW7       30.08S HX  93
ROBINSON*      SUNNY     87  69  54 CALM      30.09F HX  91
CARMI*         SUNNY     88  70  56 S5        30.07S HX  93
$$

ABBREVIATIONS USED IN REMARKS
   TC - TEMPERATURE IN CELSIUS
  WCI - WIND CHILL INDEX
   HX - HEAT INDEX
  VSB - VISIBILITY
$$



USA.gov is the U.S. government's official web portal to all federal, state and local government web resources and services.